Overview Statistics Trail Chart Weather Telemetry Raw packets
 

This is the latest recevied weather packets stored in our database for station/object WA1NHP. If no packets are shown the sender has not sent any weather packets the latest 10 day(s).

<< 4 5 6 7 8 9 10 >>
Time Temp. Humidity Pressure Rain* Wind** Luminosity Snow
1788542643 24.44° C 68% 1023.9 hPa 0 mm - 926 W/m² -
1788542044 24.44° C 69% 1023.9 hPa 0 mm - 1025 W/m² -
1788541443 24.44° C 69% 1023.9 hPa 0 mm - 1048 W/m² -
1788540844 23.33° C 73% 1023.9 hPa 0 mm - 939 W/m² -
1788540244 24.44° C 75% 1023.9 hPa 0 mm - 1090 W/m² -
1788539643 23.89° C 68% 1023.9 hPa 0 mm - 949 W/m² -
1788539044 22.78° C 80% 1023.9 hPa 0 mm - 895 W/m² -
1788538444 22.22° C 75% 1023.9 hPa 0 mm - 84 W/m² -
1788537844 22.78° C 72% 1023.9 hPa 0 mm - 179 W/m² -
1788537244 23.89° C 73% 1023.9 hPa 0 mm - 179 W/m² -
1788536644 23.89° C 70% 1023.9 hPa 0 mm - 965 W/m² -
1788536044 23.33° C 71% 1023.9 hPa 0 mm - 844 W/m² -
1788535443 23.33° C 73% 1023.9 hPa 0 mm - 784 W/m² -
1788534844 22.78° C 77% 1023.9 hPa 0 mm - 851 W/m² -
1788534243 22.78° C 79% 1023.9 hPa 0 mm - 809 W/m² -
1788533644 22.22° C 82% 1023.9 hPa 0 mm - 788 W/m² -
1788533043 21.67° C 85% 1023.9 hPa 0 mm - 786 W/m² -
1788532444 20.56° C 90% 1023.9 hPa 0 mm - 744 W/m² -
1788531844 20° C 94% 1023.9 hPa 0 mm - 728 W/m² -
1788531244 18.89° C 97% 1023.9 hPa 0 mm - 148 W/m² -
1788530645 18.89° C 99% 1023.9 hPa 0 mm - 232 W/m² -
1788530043 18.33° C 99% 1023.9 hPa 0 mm - 265 W/m² -
1788529443 17.78° C 99% 1023.9 hPa 0 mm - 162 W/m² -
1788528844 17.78° C 99% 1023.9 hPa 0 mm - 243 W/m² -
1788528244 17.22° C 99% 1023.9 hPa 0 mm - 156 W/m² -

* Rain latest hour (hover to see other rain measurements)
** Current wind speed in m/s (hover to see current wind gust speed)